| time (UTC) | temp F | wind direction | speed knots | gust knots | rain 1hr in | rain 24hr in | rain mn in | humidity % | barometer mb |
| 20260502162100 | 43 | 92 | 4.3 | 9.6 | 0.00 | 0.04 | 0.04 | 77 | 1011.3 |
| 20260502161533 | 42 | 61 | 2.6 | 7.8 | 0.00 | 0.04 | 0.04 | 76 | 1011.5 |
| 20260502152100 | 42 | 103 | 3.5 | 8.7 | 0.00 | 0.04 | 0.04 | 77 | 1012.0 |
| 20260502151100 | 41 | 63 | 3.5 | 7.0 | 0.00 | 0.04 | 0.04 | 77 | 1012.2 |
| 20260502150536 | 41 | 104 | 3.5 | 7.0 | 0.00 | 0.04 | 0.04 | 78 | 1012.3 |
| 20260502123101 | 39 | 292 | 0.9 | 2.6 | 0.04 | 0.04 | 0.04 | 70 | 1012.6 |
| 20260502122101 | 39 | 5 | 0.9 | 1.7 | 0.03 | 0.03 | 0.03 | 70 | 1012.9 |
| 20260502121101 | 38 | 5 | 0.9 | 2.6 | 0.02 | 0.02 | 0.01 | 71 | 1013.0 |
| 20260502120534 | 38 | 109 | 0.0 | 2.6 | 0.01 | 0.01 | 0.01 | 72 | 1013.0 |
| 20260502115100 | 37 | 236 | 0.9 | 2.6 | 0.01 | 0.01 | 0.01 | 73 | 1013.1 |
| 20260502114058 | 36 | 225 | 0.0 | 1.7 | 0.00 | 0.00 | 0.00 | 73 | 1013.1 |
| 20260502113533 | 36 | 225 | 0.0 | 1.7 | 0.00 | 0.00 | 0.00 | 73 | 1012.7 |
| 20260502112056 | 35 | 225 | 0.0 | 1.7 | 0.00 | 0.00 | 0.00 | 74 | 1012.7 |
| 20260502111054 | 35 | 225 | 0.0 | 0.9 | 0.00 | 0.00 | 0.00 | 74 | 1012.7 |
| 20260502110052 | 35 | 225 | 0.0 | 0.9 | 0.00 | 0.00 | 0.00 | 74 | 1012.5 |
| 20260502105050 | 34 | 269 | 0.0 | 0.0 | 0.00 | 0.00 | 0.00 | 74 | 1012.4 |
| 20260502104525 | 33 | 269 | 0.0 | 0.0 | 0.00 | 0.00 | 0.00 | 75 | 1012.3 |
| 20260502103049 | 33 | 269 | 0.0 | 0.9 | 0.00 | 0.00 | 0.00 | 76 | 1012.1 |
| 20260502102046 | 33 | 269 | 0.0 | 0.9 | 0.00 | 0.00 | 0.00 | 76 | 1012.0 |
| 20260502101046 | 33 | 269 | 0.9 | 1.7 | 0.00 | 0.00 | 0.00 | 76 | 1011.8 |
| 20260502091041 | 33 | 0 | 0.0 | 0.0 | 0.00 | 0.00 | 0.00 | 77 | 1011.5 |
| 20260502071036 | 29 | 0 | 0.0 | 0.0 | 0.00 | 0.00 | 0.00 | 79 | 1011.0 |
| 20260502070510 | 29 | 0 | 0.0 | 0.0 | 0.00 | 0.00 | 0.00 | 80 | 1011.0 |
| 20260502065036 | 30 | 0 | 0.0 | 0.0 | 0.00 | 0.00 | 0.00 | 80 | 1010.7 |
| 20260502064523 | 31 | 320 | 0.0 | 0.0 | 0.00 | 0.00 | 0.00 | 80 | 1010.7 |
| 20260502063034 | 31 | 320 | 0.0 | 0.0 | 0.00 | 0.00 | 0.00 | 80 | 1010.7 |
| 20260502062034 | 31 | 320 | 0.0 | 0.0 | 0.00 | 0.00 | 0.00 | 80 | 1010.8 |
| 20260502061034 | 31 | 320 | 0.0 | 0.0 | 0.00 | 0.00 | 0.00 | 80 | 1010.8 |
| 20260502060034 | 31 | 320 | 0.0 | 0.0 | 0.00 | 0.00 | 0.00 | 80 | 1010.7 |
| 20260502055507 | 32 | 320 | 0.0 | 0.0 | 0.00 | 0.00 | 0.00 | 80 | 1010.8 |
| 20260502054511 | 32 | 320 | 0.0 | 0.0 | 0.00 | 0.00 | 0.00 | 79 | 1010.8 |
| 20260502053033 | 33 | 320 | 0.0 | 0.0 | 0.00 | 0.00 | 0.00 | 79 | 1010.8 |
| 20260502052032 | 33 | 320 | 0.0 | 0.0 | 0.00 | 0.00 | 0.00 | 79 | 1010.8 |
| 20260502051031 | 33 | 320 | 0.0 | 0.0 | 0.00 | 0.00 | 0.00 | 79 | 1010.9 |
| 20260502050516 | 33 | 320 | 0.0 | 0.0 | 0.00 | 0.00 | 0.00 | 79 | 1010.7 |
| 20260502045030 | 33 | 320 | 0.0 | 0.0 | 0.00 | 0.00 | 0.00 | 79 | 1010.7 |
| 20260502044031 | 33 | 320 | 0.0 | 0.0 | 0.00 | 0.00 | 0.00 | 79 | 1010.6 |
| 20260502043030 | 34 | 320 | 0.0 | 0.0 | 0.00 | 0.00 | 0.00 | 77 | 1010.5 |
| 20260502042029 | 34 | 320 | 0.0 | 0.0 | 0.00 | 0.00 | 0.00 | 76 | 1010.5 |
| 20260502041029 | 35 | 320 | 0.0 | 0.0 | 0.00 | 0.00 | 0.00 | 75 | 1010.5 |
| 20260502040029 | 35 | 320 | 0.0 | 0.0 | 0.00 | 0.00 | 0.00 | 75 | 1010.5 |
| 20260502035029 | 36 | 320 | 0.0 | 0.0 | 0.00 | 0.00 | 0.00 | 75 | 1010.4 |
| 20260502034028 | 36 | 320 | 0.0 | 0.0 | 0.00 | 0.00 | 0.00 | 74 | 1010.4 |
| 20260502033028 | 36 | 320 | 0.0 | 0.0 | 0.00 | 0.00 | 0.00 | 75 | 1010.4 |
| 20260502032029 | 37 | 320 | 0.0 | 0.0 | 0.00 | 0.00 | 0.00 | 75 | 1010.4 |
| 20260502031029 | 37 | 320 | 0.0 | 0.0 | 0.00 | 0.00 | 0.00 | 72 | 1010.3 |
| 20260502030029 | 38 | 320 | 0.0 | 0.0 | 0.00 | 0.00 | 0.00 | 73 | 1010.3 |
| 20260502025030 | 38 | 320 | 0.0 | 0.0 | 0.00 | 0.00 | 0.00 | 72 | 1010.3 |
| 20260502024028 | 38 | 320 | 0.0 | 0.0 | 0.00 | 0.00 | 0.00 | 70 | 1010.3 |
| 20260502023029 | 39 | 320 | 0.0 | 0.9 | 0.00 | 0.00 | 0.00 | 69 | 1010.2 |
| 20260502022029 | 39 | 320 | 0.0 | 0.0 | 0.00 | 0.00 | 0.00 | 68 | 1010.2 |
| 20260502021029 | 40 | 320 | 0.0 | 0.0 | 0.00 | 0.00 | 0.00 | 66 | 1010.2 |
| 20260502020030 | 41 | 320 | 0.0 | 0.0 | 0.00 | 0.00 | 0.00 | 62 | 1010.3 |
| 20260502015029 | 42 | 320 | 0.0 | 0.0 | 0.00 | 0.00 | 0.00 | 60 | 1010.3 |
| 20260502014029 | 42 | 320 | 0.0 | 0.0 | 0.00 | 0.00 | 0.00 | 58 | 1010.3 |
| 20260502013523 | 43 | 320 | 0.0 | 0.0 | 0.00 | 0.00 | 0.00 | 56 | 1010.2 |
| 20260502012029 | 44 | 320 | 0.0 | 0.0 | 0.00 | 0.00 | 0.00 | 55 | 1010.1 |
| 20260502011029 | 45 | 320 | 0.0 | 0.0 | 0.00 | 0.00 | 0.00 | 54 | 1010.0 |
| 20260502010028 | 45 | 320 | 0.0 | 0.9 | 0.00 | 0.00 | 0.00 | 54 | 1009.9 |
| 20260502005029 | 46 | 320 | 0.0 | 0.9 | 0.00 | 0.00 | 0.00 | 51 | 1009.8 |
| 20260502004029 | 46 | 320 | 0.0 | 1.7 | 0.00 | 0.00 | 0.00 | 50 | 1009.6 |
| 20260502003511 | 47 | 320 | 0.0 | 1.7 | 0.00 | 0.00 | 0.00 | 50 | 1009.5 |
| 20260502002029 | 47 | 320 | 0.9 | 5.2 | 0.00 | 0.00 | 0.00 | 50 | 1009.3 |
| 20260502001029 | 48 | 313 | 0.9 | 5.2 | 0.00 | 0.00 | 0.00 | 48 | 1009.1 |
| 20260502000029 | 49 | 325 | 0.9 | 5.2 | 0.00 | 0.00 | 0.00 | 48 | 1008.8 |
| 20260501235029 | 50 | 307 | 1.7 | 9.6 | 0.00 | 0.00 | 0.00 | 45 | 1008.6 |
| 20260501234030 | 51 | 310 | 1.7 | 9.6 | 0.00 | 0.00 | 0.00 | 45 | 1008.4 |
| 20260501233029 | 52 | 314 | 2.6 | 7.8 | 0.00 | 0.00 | 0.00 | 43 | 1008.3 |
| 20260501232029 | 53 | 302 | 3.5 | 7.8 | 0.00 | 0.00 | 0.00 | 42 | 1008.0 |
| 20260501231029 | 54 | 321 | 3.5 | 9.6 | 0.00 | 0.00 | 0.00 | 42 | 1007.9 |
| 20260501230503 | 55 | 321 | 2.6 | 12.2 | 0.00 | 0.00 | 0.00 | 42 | 1007.6 |
| 20260501225509 | 56 | 333 | 1.7 | 6.1 | 0.00 | 0.00 | 0.00 | 41 | 1007.4 |
| 20260501224504 | 56 | 348 | 1.7 | 5.2 | 0.00 | 0.01 | 0.00 | 42 | 1007.3 |
| 20260501223029 | 56 | 326 | 2.6 | 12.2 | 0.00 | 0.01 | 0.00 | 40 | 1007.0 |
| 20260501222029 | 57 | 317 | 4.3 | 12.2 | 0.00 | 0.01 | 0.00 | 40 | 1006.9 |
| 20260501221949 | 58 | 251 | 2.6 | 13.9 | 0.00 | 0.01 | 0.00 | 39 | 1006.7 |
| 20260501220029 | 58 | 281 | 4.3 | 13.9 | 0.00 | 0.01 | 0.00 | 39 | 1006.7 |
| 20260501215505 | 58 | 294 | 3.5 | 10.4 | 0.00 | 0.01 | 0.00 | 40 | 1006.6 |
| 20260501214029 | 59 | 316 | 2.6 | 13.9 | 0.00 | 0.01 | 0.00 | 40 | 1006.5 |
| 20260501213030 | 58 | 348 | 5.2 | 13.9 | 0.00 | 0.01 | 0.00 | 41 | 1006.5 |
| 20260501212029 | 59 | 306 | 4.3 | 14.8 | 0.00 | 0.01 | 0.00 | 38 | 1006.4 |
| 20260501211029 | 58 | 321 | 6.1 | 14.8 | 0.00 | 0.02 | 0.00 | 40 | 1006.3 |
| 20260501210029 | 59 | 243 | 5.2 | 13.9 | 0.00 | 0.02 | 0.00 | 39 | 1006.1 |
| 20260501205029 | 60 | 274 | 5.2 | 12.2 | 0.00 | 0.02 | 0.00 | 40 | 1006.2 |
| 20260501204029 | 60 | 0 | 2.6 | 7.8 | 0.00 | 0.02 | 0.00 | 43 | 1006.1 |
| 20260501203029 | 60 | 279 | 3.5 | 12.2 | 0.00 | 0.03 | 0.00 | 40 | 1006.0 |
| 20260501202029 | 59 | 255 | 4.3 | 12.2 | 0.00 | 0.03 | 0.00 | 46 | 1005.9 |
| 20260501201028 | 59 | 311 | 3.5 | 12.2 | 0.00 | 0.03 | 0.00 | 42 | 1005.8 |
| 20260501200029 | 58 | 302 | 4.3 | 12.2 | 0.00 | 0.03 | 0.00 | 44 | 1005.7 |
| 20260501195029 | 58 | 271 | 5.2 | 13.0 | 0.00 | 0.04 | 0.00 | 44 | 1005.6 |
| 20260501194028 | 58 | 297 | 5.2 | 13.0 | 0.00 | 0.06 | 0.00 | 48 | 1005.5 |
| 20260501193029 | 58 | 340 | 4.3 | 13.9 | 0.00 | 0.07 | 0.00 | 46 | 1005.6 |
| 20260501192029 | 58 | 274 | 4.3 | 13.0 | 0.00 | 0.11 | 0.00 | 48 | 1005.7 |
| 20260501191029 | 57 | 294 | 5.2 | 13.0 | 0.00 | 0.15 | 0.00 | 46 | 1005.7 |
| 20260501190029 | 58 | 295 | 4.3 | 10.4 | 0.00 | 0.20 | 0.00 | 49 | 1005.7 |
| 20260501185511 | 58 | 306 | 3.5 | 9.6 | 0.00 | 0.21 | 0.00 | 48 | 1005.7 |
| 20260501184028 | 58 | 343 | 3.5 | 12.2 | 0.00 | 0.22 | 0.00 | 52 | 1005.7 |
| 20260501183029 | 56 | 330 | 4.3 | 13.0 | 0.00 | 0.24 | 0.00 | 53 | 1005.6 |
| 20260501182029 | 56 | 272 | 6.1 | 13.0 | 0.00 | 0.25 | 0.00 | 49 | 1005.5 |
| 20260501181029 | 56 | 236 | 6.1 | 13.0 | 0.00 | 0.26 | 0.00 | 49 | 1005.5 |
| 20260501180029 | 56 | 303 | 6.1 | 13.9 | 0.00 | 0.29 | 0.00 | 50 | 1005.6 |
| 20260501175029 | 57 | 252 | 5.2 | 17.4 | 0.00 | 0.33 | 0.00 | 51 | 1005.7 |
| 20260501174029 | 58 | 280 | 3.5 | 7.8 | 0.00 | 0.34 | 0.00 | 54 | 1005.6 |
| 20260501173029 | 57 | 262 | 3.5 | 8.7 | 0.00 | 0.34 | 0.00 | 56 | 1005.7 |
| 20260501172029 | 56 | 342 | 4.3 | 13.0 | 0.00 | 0.34 | 0.00 | 52 | 1005.7 |
| 20260501171029 | 55 | 355 | 6.1 | 13.0 | 0.00 | 0.34 | 0.00 | 55 | 1005.9 |
| 20260501170029 | 55 | 281 | 6.1 | 11.3 | 0.00 | 0.34 | 0.00 | 57 | 1005.8 |
| 20260501165029 | 56 | 277 | 4.3 | 12.2 | 0.00 | 0.34 | 0.00 | 54 | 1005.9 |
| 20260501164028 | 56 | 317 | 4.3 | 12.2 | 0.00 | 0.34 | 0.00 | 59 | 1005.8 |
| 20260501163029 | 55 | 290 | 4.3 | 12.2 | 0.00 | 0.34 | 0.00 | 57 | 1006.0 |